Regional Weather Roundup
Issued by NWS

Home | Current Version | Previous Version | Text Only | Print | Product List | Glossary Off
Versions: 1 2 3 4 5 6 7 8 9 10 11 12 13 14 15 16 17 18 19 20 21 22 23 24 25 26 27 28 29 30 31 32 33 34 35 36 37 38 39 40 41 42 43 44 45 46 47 48 49 50

000
ASUS43 KLMK 011002
RWRKY
KENTUCKY REGIONAL WEATHER ROUNDUP
NATIONAL WEATHER SERVICE LOUISVILLE KY
600 AM EDT FRI AUG 01 2014

NOTE "FAIR" INDICATES FEW OR NO CLOUDS BELOW 12,000 FEET
WITH NO SIGNIFICANT WEATHER AND/OR OBSTRUCTIONS TO VISIBILITY.

KYZ001>023-026-027-061>063-070>075-011100-
WESTERN AND SOUTH CENTRAL KENTUCKY

CITY           SKY/WX    TMP DP  RH WIND       PRES   REMARKS
PADUCAH        MOCLDY    63  61  93 CALM      30.07R FOG
HENDERSON      MOCLDY    61  57  88 CALM      30.07S
OWENSBORO      PTCLDY    62  61  97 CALM      30.08R
HOPKINSVILLE   CLEAR     64  64 100 N1        30.07R
BOWLING GREEN  CLEAR     61  58  90 CALM      30.08R
GLASGOW        NOT AVBL
$$

KYZ024-025-028>034-038-045-046-053-011100-
NORTH CENTRAL KENTUCKY

CITY           SKY/WX    TMP DP  RH WIND       PRES   REMARKS
LOUISVILLE/SDF PTCLDY    65  61  87 CALM      30.09R
LOUISVILLE/LOU CLEAR     61  58  90 CALM      30.09R
FORT KNOX      CLEAR     58  57  96 NW2       30.08R
$$

KYZ035>037-039>044-047>052-055>060-089>105-011100-
NORTHEAST KENTUCKY

CITY           SKY/WX    TMP DP  RH WIND       PRES   REMARKS
LEXINGTON      CLEAR     60  57  89 CALM      30.10R
COVINGTON      CLEAR     67  61  81 N3        30.10R
FRANKFORT      CLEAR     58  57  97 N3        30.09R
$$

KYZ054-064>069-076>088-106>120-011100-
SOUTHEAST KENTUCKY

CITY           SKY/WX    TMP DP  RH WIND       PRES   REMARKS
JACKSON        MOCLDY    65  59  81 CALM      30.10S
LONDON         MOCLDY    64  60  87 CALM      30.10S
SOMERSET       NOT AVBL
MIDDLESBORO    CLOUDY    61  61 100 CALM      30.11S
MONTICELLO     PTSUNNY   59  59 100 CALM      30.11R FOG
$$



USA.gov is the U.S. government's official web portal to all federal, state and local government web resources and services.